Location: Camps Bay
(33.9517°S, 18.3844°E)
Time: 02:52:36
(UTC+00:00)

Daily predictions for brighter satellites

Satellite Brightness Start Highest point End
(mag) Time Altitude Azimuth Time Altitude Azimuth Time Altitude Azimuth
SeaSat 1 3.9 00:01:56 10° S 00:05:08 31° SSW 00:05:08 31° SSW
Cosmos 2082 Rocket 4.1 00:22:30 19° ENE 00:22:46 19° E 00:26:38 10° ESE
ADEOS II 2.7 00:47:18 50° SW 00:47:18 50° SW 00:51:18 10° SSW
CZ-2D R/B 4.2 00:49:32 15° WSW 00:49:32 15° WSW 00:50:48 10° SW
SL-19 R/B 4.3 00:43:29 10° SSE 00:49:11 77° ENE 00:49:15 77° ENE
Cosmos 1503 Rocket 4.2 00:53:17 68° ESE 00:53:17 68° ESE 00:58:07 10° SSE
USA 267 3.9 00:48:10 10° ESE 00:54:16 39° NE 00:55:02 38° NE
ASTEX 1 3.6 00:51:21 10° S 00:55:51 70° SSE 00:55:51 70° SSE
ARIANE 5 R/B 3.1 01:01:40 44° SW 01:01:40 44° SW 01:05:20 10° SSW
CZ-2D R/B 4.4 01:05:47 46° SSW 01:05:47 46° SSW 01:08:53 10° SSW
Cosmos 2026 Rocket 4.3 01:06:08 48° W 01:06:08 48° W 01:12:06 10° S
deb Chang Zheng 4 4.3 01:10:01 48° SSW 01:10:01 48° SSW 01:13:11 10° SSW
Cosmos 1656 4.3 01:03:44 10° S 01:09:12 52° ESE 01:12:23 23° NE
Meteor 2-4 Rocket 3.9 01:10:58 60° W 01:11:05 61° W 01:17:02 10° S
Cosmos 2344 4.2 01:02:57 10° SSW 01:15:46 75° WNW 01:23:51 15° NNE
Cosmos 1300 Rocket 4.3 01:11:51 10° SSW 01:15:04 46° SSW 01:15:04 46° SSW
Meteor 1-12 Rocket 4.3 01:12:27 10° S 01:18:34 85° W 01:19:48 59° N
ERS-2 3.1 01:15:26 10° SSE 01:18:11 46° SSE 01:18:11 46° SSE
Cosmos 1378 Rocket 3.6 01:21:53 75° SSE 01:21:53 75° SSE 01:25:56 10° S
Cosmos 2151 Rocket 4.0 01:18:33 10° SSW 01:22:11 53° SW 01:22:11 53° SW
Cosmos 968 Rocket 4.0 01:25:57 45° WSW 01:26:01 45° WSW 01:31:06 10° S
Cosmos 1674 Rocket 4.0 01:27:55 53° SW 01:27:55 53° SW 01:31:51 10° S
Cosmos 1354 Rocket 4.1 01:27:28 58° W 01:27:46 59° WSW 01:33:01 10° S
Meteor 2-13 Rocket 4.5 01:28:28 54° WNW 01:29:21 59° W 01:35:24 10° S
Gbstr 26 Del rocket 4.5 01:33:03 29° NE 01:33:03 29° NE 01:35:40 10° NE
Cosmos 1818 4.2 01:29:35 40° NNE 01:30:53 48° ENE 01:36:03 10° SE
Cosmos 1655 Rocket 4.0 01:30:35 52° NW 01:32:04 67° W 01:38:31 10° S
NOSS 2-2 (C) 4.2 01:25:03 10° SSW 01:32:09 77° WNW 01:34:05 42° NNE
STARLINK 1030 4.4 01:30:52 10° SSW 01:34:14 41° SE 01:37:35 10° ENE
Cosmos 1980 Rocket 4.3 01:31:30 10° S 01:36:17 27° ESE 01:41:02 10° ENE
STARLINK 1020 4.3 01:33:09 10° SSW 01:36:34 44° SE 01:39:57 10° ENE
STARLINK 1034 4.2 01:35:28 10° SSW 01:38:53 46° SE 01:42:18 10° ENE
SL-16 R/B 2.5 01:34:51 10° S 01:41:07 76° WSW 01:43:14 43° NNW
H-2A R/B 3.3 01:39:06 10° SSE 01:42:57 34° E 01:44:39 24° NE
NOSS 2-2 (E) 4.3 01:36:59 10° SW 01:43:29 50° WNW 01:43:50 50° NW
STARLINK 1033 4.0 01:40:06 10° SW 01:43:35 52° SE 01:47:02 10° ENE
MOZ.5/SAFIR/RUBIN 5/SL-8 4.2 01:39:12 10° S 01:43:49 47° WSW 01:44:10 46° W
Cosmos 1066 Rocket 4.3 01:41:41 40° N 01:43:54 82° E 01:49:48 10° S
Cosmos 1697 Rocket 3.2 01:40:22 10° SSW 01:46:02 61° ESE 01:51:36 10° NNE
Lacrosse 5 3.5 01:41:24 10° SSW 01:46:07 35° SE 01:50:48 10° ENE
Cosmos 1833 Rocket 3.2 01:46:58 39° W 01:48:10 44° WSW 01:53:33 10° S
Cosmos 1553 Rocket 4.3 01:42:40 10° SSW 01:48:38 48° W 01:50:10 40° NW
IDEFIX/ARIANE 42P 2.5 01:47:12 42° N 01:48:58 71° WNW 01:54:15 10° SSW
SL-27 R/B 4.2 01:48:22 21° NE 01:49:14 24° E 01:52:00 10° SE
UNK 4.2 01:48:41 10° S 01:53:10 43° WSW 01:53:45 41° W
Cosmos 1975 Rocket 3.3 01:52:01 37° NNE 01:53:35 65° E 01:57:57 10° SSE
Okean 2 4.0 01:55:59 29° NNE 01:57:51 55° E 02:02:01 10° SSE
S3M 4.2 01:52:40 10° SSW 01:58:53 54° W 02:01:33 33° NNW
PSLV R/B 3.4 01:57:35 41° N 01:59:02 82° W 02:03:18 10° SSW
PAYLOAD A 4.3 01:54:24 10° NNE 01:59:05 63° ESE 02:04:04 10° S
Cosmos 389 Rocket 2.4 01:58:50 73° NW 01:59:06 81° W 02:02:48 10° S
STARLINK 1044 3.1 01:56:48 10° SW 02:00:24 85° SE 02:03:55 10° NE
deb Kosmos-1763 4.0 02:04:51 55° N 02:05:36 86° ENE 02:09:20 10° SSE
Cosmos 2082 Rocket 2.6 02:04:21 34° WNW 02:06:22 48° WSW 02:11:56 10° S
Cosmos 883 Rocket 4.5 02:00:36 10° S 02:07:01 81° W 02:12:36 14° N
Cosmos 783 Rocket 4.4 02:03:11 10° SSW 02:08:36 85° WNW 02:13:54 10° NNE
Cosmos 2285 Rocket 4.0 02:05:56 26° NNW 02:09:44 90° N 02:16:15 10° SSE
Cosmos 1777 Rocket 4.0 02:08:13 33° NNW 02:10:39 78° WSW 02:15:59 10° SSE
ATLAS 2AS CENTAUR R/B 2.8 02:06:02 10° SSW 02:12:48 82° ESE 02:20:09 10° NNE
STARLINK 1035 2.8 02:12:19 50° WSW 02:12:58 66° NW 02:16:11 10° NE
STARLINK 1027 4.0 02:15:33 32° NNE 02:15:33 32° NNE 02:17:31 10° NNE
Cosmos 2315 Rocket 4.0 02:08:23 10° S 02:14:52 89° W 02:21:15 10° N
Cosmos 1378 3.1 02:13:51 35° N 02:15:21 85° E 02:19:08 10° S
Cosmos 2098 Rocket 4.2 02:15:10 10° NNE 02:20:46 52° E 02:25:16 10° SSE
Cosmos 2360 4.2 02:18:15 10° SSW 02:24:02 88° ESE 02:29:46 10° NNE
GPS 2-04 Rocket1 2.2 02:22:31 29° WSW 02:24:09 89° S 02:27:38 10° ENE
Spot 2 3.9 02:21:50 22° N 02:24:18 60° WNW 02:28:26 10° SSW
SL-08 R/B 3.4 02:19:46 10° S 02:24:48 76° WSW 02:28:07 21° NNW
ADEOS 3.8 02:23:08 21° NNW 02:26:26 47° W 02:31:31 10° SSW
COSMOS 2455 2.8 02:22:23 10° SSW 02:28:28 79° WNW 02:34:28 10° NNE
Cosmos 773 Rocket 4.0 02:26:18 10° SSW 02:31:37 90° ENE 02:36:54 10° NNE
Cosmos 1766 3.3 02:28:21 10° S 02:32:25 88° E 02:36:23 10° N
EO 1 Delta rocket 4.4 02:28:52 10° NNE 02:34:02 83° E 02:40:37 10° S
ASTRO E2 3.0 02:33:25 28° NW 02:35:15 51° N 02:39:10 10° E
USA 267 3.7 02:30:55 10° SSE 02:37:16 51° SW 02:42:22 16° WNW
Hubble Space Telescope 1.7 02:36:56 25° NW 02:38:08 29° NNW 02:41:44 10° NE
CZ-4C R/B 2.9 02:36:02 10° S 02:39:18 58° WSW 02:40:59 24° NNW
STARLINK 1031 3.8 02:37:03 10° WSW 02:40:13 32° NW 02:43:20 10° NNE
STARLINK 1024 3.9 02:39:14 10° WSW 02:42:21 30° NW 02:45:26 10° NNE
SAR-Lupe-1 4.2 02:40:42 10° S 02:44:18 59° WSW 02:46:49 18° NNW
Cosmos 2278 3.8 02:38:58 10° SSW 02:44:34 56° WNW 02:50:07 10° N
Meteor 1-28 Rocket 3.3 02:41:21 10° SSE 02:45:10 80° E 02:48:56 10° N
Cosmos 1842 3.3 02:43:05 17° NNW 02:45:59 61° W 02:49:53 10° S
Meteor 1-31 Rocket 2.7 02:42:44 10° N 02:46:33 84° WNW 02:50:26 10° SSW
STARLINK 1032 4.0 02:43:41 10° WSW 02:46:42 27° NW 02:49:41 10° N
Cosmos 1536 Rocket 3.8 02:43:53 10° N 02:48:19 76° E 02:52:50 10° S
CZ-4B R/B 2.6 02:45:00 10° SSE 02:48:25 44° E 02:51:48 10° N
Meteor 1-21 4.3 02:42:53 10° N 02:48:36 90° SW 02:54:27 10° S
Cosmos 1437 Rocket 3.1 02:44:46 10° N 02:48:41 68° E 02:52:45 10° SSE
STARLINK 1011 4.1 02:45:55 10° WSW 02:48:52 26° NW 02:51:48 10° N
STARLINK 1041 4.4 02:45:58 10° SW 02:50:07 55° SE 02:54:13 10° ENE
STARLINK 1036 4.2 02:48:09 10° WSW 02:51:03 24° NW 02:53:56 10° N
Cosmos 2369 4.4 02:46:48 10° SW 02:51:50 32° WNW 02:56:50 10° NNW
ATLAS 5 CENTAUR R/B 3.3 02:46:14 10° NNW 02:53:10 56° ENE 02:59:52 10° SE
Cosmos 1025 Rocket 3.1 02:50:40 10° N 02:55:02 89° E 02:59:31 10° S
STARLINK 1038 4.2 02:50:54 10° SW 02:55:04 62° SE 02:59:12 10° NE
STARLINK 1037 4.3 02:52:21 10° WSW 02:55:08 22° NW 02:57:53 10° N
STARLINK 1047 4.3 02:52:43 10° WSW 02:55:29 22° NW 02:58:14 10° N
Cosmos 1707 3.7 02:53:34 10° NNE 02:57:19 48° E 03:01:06 10° SSE
STARLINK 1059 4.4 02:54:41 10° WSW 02:57:23 21° NW 03:00:04 10° N
CZ-2C R/B 3.0 02:54:11 10° NNW 02:59:01 39° W 03:03:54 10° SSW
SL-16 R/B 3.9 02:54:07 10° S 02:59:27 38° ESE 03:04:42 10° NE
Cosmos 1538 Rocket 4.0 02:54:06 10° SSW 02:59:29 70° WNW 03:04:50 10° N
STARLINK 1057 4.5 02:57:01 10° WSW 02:59:38 20° NW 03:02:13 10° N
STARLINK 1046 4.0 02:55:51 10° SW 03:00:03 69° SE 03:04:12 10° NE
Meteor 1-4 Rocket 4.0 02:58:26 16° WNW 03:00:13 22° WSW 03:03:08 10° SSW
STARLINK 1039 3.8 03:00:50 10° SW 03:05:03 77° SE 03:09:14 10° NE
H-2A R/B 3.2 03:02:54 10° NNW 03:06:50 36° W 03:10:58 10° SSW
Cosmos 1733 3.5 03:04:58 10° SSW 03:08:39 46° W 03:12:18 10° NNW
STARLINK 1045 3.7 03:05:48 10° SW 03:10:02 85° SE 03:14:13 10° NE
CZ-4B R/B 3.0 03:06:30 10° N 03:10:13 45° W 03:13:50 10° SSW
Landsat 5 4.1 03:07:07 10° S 03:10:39 34° WSW 03:14:12 10° NW
COSMOS 2487 3.4 03:11:17 10° N 03:14:38 49° ENE 03:18:01 10° SSE
STARLINK 1050 3.6 03:10:52 10° SW 03:15:05 82° NW 03:19:15 10° NE
Starlink AQ 4.1 03:13:33 10° NNW 03:16:06 31° NE 03:18:41 10° ESE
DELTA 2 R/B(2) 3.0 03:15:06 10° WSW 03:17:28 63° NNW 03:19:15 10° ENE
SJ 16-02 1.5 03:13:26 10° N 03:17:51 81° ENE 03:22:19 10° SSE
ALOS 2.5 03:13:50 10° NNE 03:18:31 81° ESE 03:23:16 10° S
H-2A R/B 3.8 03:16:04 10° SSW 03:18:36 16° WSW 03:21:06 10° WNW
Cosmos 1758 3.5 03:14:26 10° S 03:18:36 82° E 03:22:42 10° N
Starlink BA 4.0 03:16:03 10° NNW 03:18:39 33° NE 03:21:17 10° ESE
Starlink AS 4.0 03:16:13 10° NNW 03:18:50 33° NE 03:21:29 10° ESE
Starlink AU 4.0 03:16:48 10° NNW 03:19:27 34° NE 03:22:08 10° ESE
Starlink AT 4.0 03:16:59 10° NNW 03:19:38 35° NE 03:22:19 10° ESE
Starlink BB 4.0 03:17:10 10° NNW 03:19:49 35° NE 03:22:30 10° ESE
Starlink BC 4.0 03:17:22 10° NNW 03:20:01 35° NE 03:22:42 10° ESE
STARLINK 1055 3.6 03:15:51 10° SW 03:20:03 74° NW 03:24:12 10° NE
Starlink BK 3.9 03:17:33 10° NNW 03:20:13 35° NE 03:22:54 10° ESE
Cosmos 1980 Rocket 2.8 03:15:06 10° SW 03:20:18 37° WNW 03:25:28 10° N
Starlink AY 3.9 03:17:44 10° NNW 03:20:23 35° NE 03:23:05 10° ESE
Starlink AW 3.9 03:17:55 10° NNW 03:20:35 36° NE 03:23:17 10° ESE
Starlink AV 3.9 03:18:01 10° NNW 03:20:40 35° NE 03:23:21 10° ESE
Starlink BJ 3.9 03:18:03 10° NNW 03:20:43 36° NE 03:23:26 10° ESE
Starlink BD 3.9 03:18:26 10° NNW 03:21:07 36° NE 03:23:49 10° ESE
Starlink BM 3.9 03:18:35 10° NNW 03:21:15 36° NE 03:23:56 10° ESE
Starlink BE 3.9 03:18:38 10° NNW 03:21:19 36° NE 03:24:01 10° ESE
Starlink AX 3.9 03:19:00 10° NNW 03:21:41 37° NE 03:24:24 10° ESE
Starlink BH 3.8 03:19:11 10° NNW 03:21:52 37° NE 03:24:35 10° ESE
Starlink AZ 3.8 03:19:22 10° NNW 03:22:03 37° NE 03:24:47 10° ESE
Starlink BF 3.8 03:19:32 10° NNW 03:22:12 37° NE 03:24:55 10° ESE
Starlink BG 3.8 03:19:34 10° NNW 03:22:15 38° NE 03:24:59 10° ESE
Starlink BL 3.8 03:19:55 10° NNW 03:22:37 38° NE 03:25:21 10° ESE
Starlink AH 3.8 03:20:05 10° NNW 03:22:47 38° NE 03:25:32 10° ESE
Starlink X 3.8 03:20:14 10° NNW 03:22:54 38° NE 03:25:38 10° ESE
Starlink AC 3.8 03:20:17 10° NNW 03:22:59 38° NE 03:25:44 10° ESE
Starlink Z 3.8 03:20:36 10° NNW 03:23:17 39° NE 03:26:02 10° ESE
Starlink AE 3.8 03:20:40 10° NNW 03:23:23 39° NE 03:26:07 10° ESE
Starlink AK 3.7 03:21:01 10° NNW 03:23:44 40° NE 03:26:30 10° ESE
Starlink AL 3.7 03:21:13 10° NNW 03:23:56 40° NE 03:26:42 10° ESE
Starlink AD 3.7 03:21:22 10° NNW 03:24:05 40° NE 03:26:51 10° ESE
Starlink Y 3.7 03:21:32 10° NNW 03:24:15 40° NE 03:26:59 10° ESE
Starlink W 3.7 03:21:49 10° NNW 03:24:31 40° NE 03:27:15 10° ESE
Starlink AG 3.7 03:21:57 10° NNW 03:24:41 41° NE 03:27:27 10° ESE
STARLINK 1022 3.6 03:20:50 10° SW 03:25:00 65° NW 03:29:08 10° NNE
Starlink AJ 3.7 03:22:17 10° NNW 03:25:02 41° NE 03:27:48 10° ESE
Starlink AP 3.6 03:22:37 10° NNW 03:25:20 42° NE 03:28:06 10° ESE
Starlink AM 3.7 03:22:38 10° NNW 03:25:24 42° NE 03:28:10 10° ESE
Starlink AA 3.6 03:23:02 10° NNW 03:25:46 42° NE 03:28:34 10° ESE
Starlink AF 3.6 03:23:15 10° NNW 03:26:00 43° NE 03:28:47 10° ESE
Starlink AN 3.6 03:23:21 10° NNW 03:26:07 43° NE 03:28:52 10° ESE
Starlink AB 3.6 03:23:25 10° NNW 03:26:11 43° NE 03:28:58 10° ESE
Cosmos 1953 3.4 03:23:00 10° S 03:26:58 51° E 03:30:52 10° NNE
Lacrosse 5 2.6 03:24:28 10° WSW 03:29:00 32° WNW 03:33:29 10° N
Cosmos 1697 Rocket 4.3 03:26:23 10° WSW 03:29:20 14° W 03:32:17 10° NW
STARLINK 1042 3.7 03:25:49 10° SW 03:29:56 58° NW 03:34:02 10° NNE
NOSS 3-4 (A) 4.2 03:24:18 10° SW 03:30:11 33° WNW 03:35:37 10° N
NOSS 3-4 (C) 4.1 03:24:24 10° SW 03:30:18 33° WNW 03:35:45 10° N
